Weather History for KCXY - October, 2012

Change the Weather History Date:

Friday, October 5, 2012

  Actual Average Record
Temperature  
Mean Temperature 66 °F -  
Max Temperature 79 °F 66 °F 97 °F (1941)
Min Temperature 53 °F 46 °F 34 °F (1961)
Cooling Degree Days 1    
Growing Degree Days 16 (Base 50)    
Moisture  
Dew Point 55 °F    
Average Humidity 70    
Maximum Humidity 96    
Minimum Humidity 46    
Precipitation  
Precipitation 0.00 in - - ()
Sea Level Pressure  
Sea Level Pressure 30.05 in    
Wind  
Wind Speed 2 mph (WSW)    
Max Wind Speed 10 mph    
Max Gust Speed -    
Visibility 9 miles    
Events      
Averages and records for this station are not official NWS values.
T = Trace of Precipitation, MM = Missing Value Source: NWS Daily Summary

Daily Weather History Graph

Daily Weather History Graph

Search for Another Location

Airport or City:

Trip Planner

Search our weather history database for the weather conditions in past years. The results will help you decide how hot, cold, wet, or windy it might be!

Date:

Astronomy

Oct. 05, 2012 Rise Set
Actual Time 7:08 AM EDT 6:42 PM EDT
Civil Twilight 6:41 AM EDT 7:09 PM EDT
Nautical Twilight 6:09 AM EDT 7:40 PM EDT
Astronomical Twilight 5:37 AM EDT 8:12 PM EDT
Moon 10:03 PM EDT (10/5) 12:14 PM EDT (10/5)
Length of Visible Light 12h 28m
Length of Day
11h 34m
Waning Gibbous, 74% of the Moon is Illuminated
Oct 5
Waning Gibbous
Oct 8
Last Quarter
Oct 15
New
Oct 21
First Quarter
Oct 29
Full

Hourly Weather History & Observations

Time (EDT) Temp. Dew Point Humidity Pressure Visibility Wind Dir Wind Speed Gust Speed Precip Events Conditions
12:56 AM 57.9 °F 54.0 °F 87% 30.12 in 10.0 mi Calm Calm - N/A   Clear
1:56 AM 55.9 °F 54.0 °F 93% 30.12 in 8.0 mi Calm Calm - N/A   Clear
2:56 AM 55.0 °F 54.0 °F 96% 30.12 in 5.0 mi Calm Calm - N/A   Clear
3:56 AM 55.9 °F 53.1 °F 90% 30.11 in 9.0 mi Calm Calm - N/A   Clear
4:56 AM 55.9 °F 52.0 °F 87% 30.12 in 10.0 mi Calm Calm - N/A   Clear
5:56 AM 53.1 °F 51.1 °F 93% 30.12 in 7.0 mi Calm Calm - N/A   Clear
6:56 AM 53.1 °F 52.0 °F 96% 30.12 in 7.0 mi Calm Calm - N/A   Clear
7:56 AM 54.0 °F 52.0 °F 93% 30.12 in 10.0 mi Calm Calm - N/A   Clear
8:56 AM 61.0 °F 55.0 °F 81% 30.13 in 10.0 mi West 6.9 mph - N/A   Clear
9:56 AM 66.0 °F 57.0 °F 73% 30.12 in 10.0 mi Calm Calm - N/A   Clear
10:56 AM 71.1 °F 57.0 °F 61% 30.10 in 10.0 mi WNW 8.1 mph - N/A   Clear
11:56 AM 75.0 °F 57.9 °F 55% 30.08 in 10.0 mi WNW 6.9 mph - N/A   Clear
12:56 PM 77.0 °F 57.9 °F 52% 30.06 in 10.0 mi West 10.4 mph - N/A   Clear
1:56 PM 77.0 °F 57.0 °F 50% 30.03 in 10.0 mi WNW 6.9 mph - N/A   Clear
2:56 PM 77.0 °F 55.9 °F 48% 30.01 in 10.0 mi WNW 3.5 mph - N/A   Scattered Clouds
3:56 PM 79.0 °F 57.9 °F 48% 29.99 in 10.0 mi WSW 10.4 mph - N/A   Partly Cloudy
4:56 PM 78.1 °F 55.9 °F 46% 29.99 in 10.0 mi WSW 8.1 mph - N/A   Clear
5:56 PM 75.0 °F 57.9 °F 55% 29.98 in 10.0 mi SSW 3.5 mph - N/A   Partly Cloudy
6:56 PM 72.0 °F 57.0 °F 59% 29.98 in 10.0 mi SSW 4.6 mph - N/A   Clear
7:56 PM 71.1 °F 57.0 °F 61% 29.97 in 10.0 mi Calm Calm - N/A   Clear
8:56 PM 71.1 °F 55.0 °F 57% 29.97 in 10.0 mi SSW 6.9 mph - N/A   Clear
9:56 PM 71.1 °F 55.0 °F 57% 29.96 in 10.0 mi SSW 8.1 mph - N/A   Clear
10:56 PM 69.1 °F 54.0 °F 58% 29.94 in 10.0 mi South 4.6 mph - N/A   Clear
11:56 PM 64.0 °F 57.9 °F 80% 29.92 in 10.0 mi Calm Calm - N/A   Clear